Joliet, IL

9:28 PM CST on January 16, 2018 (GMT -0600)
Joliet Regional

Weather History for KJOT - May, 2013

Change the Weather History Date:

Tuesday, May 28, 2013

  Actual Average (KARR) Record (KARR)
Temperature  
Mean Temperature 68 °F -  
Max Temperature 76 °F 70 °F 93 °F (1998)
Min Temperature 61 °F 49 °F 39 °F (2008)
Cooling Degree Days 3    
Growing Degree Days 18 (Base 50)    
Moisture  
Dew Point 64 °F    
Average Humidity 88    
Maximum Humidity 97    
Minimum Humidity 74    
Precipitation  
Precipitation 0.35 in - - ()
Sea Level Pressure  
Sea Level Pressure 29.81 in    
Wind  
Wind Speed 7 mph (SSW)    
Max Wind Speed 15 mph    
Max Gust Speed 29 mph    
Visibility 9 miles    
Events Rain , Thunderstorm    
Averages and records for this station are not official NWS values.
T = Trace of Precipitation, MM = Missing Value Source: NWS Daily Summary

Daily Weather History Graph

Daily Weather History Graph

Search for Another Location

Airport or City:

Trip Planner

Search our weather history database for the weather conditions in past years. The results will help you decide how hot, cold, wet, or windy it might be!

Date:

Astronomy

May. 28, 2013 Rise Set
Actual Time 5:23 AM CDT 8:17 PM CDT
Civil Twilight 4:50 AM CDT 8:50 PM CDT
Nautical Twilight 4:08 AM CDT 9:32 PM CDT
Astronomical Twilight 3:20 AM CDT 10:20 PM CDT
Moon 11:39 PM CDT (5/28) 9:12 AM CDT (5/28)
Length of Visible Light 16h 00m
Length of Day
14h 54m
Waning Gibbous, 82% of the Moon is Illuminated
May 28
Waning Gibbous
May 31
Last Quarter
Jun 8
New
Jun 16
First Quarter
Jun 23
Full

Hourly Weather History & Observations

Time (CDT) Temp. Dew Point Humidity Pressure Visibility Wind Dir Wind Speed Gust Speed Precip Events Conditions
12:15 AM 61.2 °F 60.1 °F 96% 29.88 in 2.0 mi SE 9.2 mph - N/A Rain Light Rain
12:35 AM 61.2 °F 60.1 °F 96% 29.87 in 2.0 mi SE 6.9 mph - N/A   Overcast
12:55 AM 61.7 °F 60.8 °F 97% 29.86 in 2.5 mi SSE 3.5 mph - N/A   Overcast
1:15 AM 62.1 °F 61.0 °F 96% 29.86 in 3.0 mi ESE 4.6 mph - N/A Rain , Thunderstorm Light Thunderstorms and Rain
1:35 AM 62.8 °F 61.7 °F 96% 29.84 in 5.0 mi SE 4.6 mph - N/A Thunderstorm Overcast
1:55 AM 63.1 °F 61.7 °F 95% 29.84 in 7.0 mi SSE 3.5 mph - N/A Thunderstorm Mostly Cloudy
2:15 AM 63.5 °F 61.7 °F 94% 29.84 in 7.0 mi South 4.6 mph - 0.01 in   Overcast
2:35 AM 63.1 °F 61.5 °F 94% 29.83 in 10.0 mi SE 4.6 mph - 0.01 in   Scattered Clouds
2:55 AM 63.1 °F 61.7 °F 95% 29.83 in 10.0 mi SE 3.5 mph - 0.01 in   Mostly Cloudy
3:15 AM 62.8 °F 61.2 °F 94% 29.82 in 10.0 mi SE 4.6 mph - N/A   Scattered Clouds
3:35 AM 62.8 °F 61.3 °F 95% 29.82 in 7.0 mi SE 4.6 mph - N/A   Scattered Clouds
3:55 AM 62.6 °F 61.0 °F 94% 29.81 in 10.0 mi SSE 4.6 mph - N/A   Scattered Clouds
4:15 AM 62.8 °F 61.0 °F 94% 29.81 in 10.0 mi SSE 4.6 mph - N/A   Clear
4:35 AM 62.6 °F 60.8 °F 94% 29.81 in 10.0 mi SSE 5.8 mph - N/A   Clear
4:55 AM 62.6 °F 60.8 °F 94% 29.81 in 10.0 mi SSE 5.8 mph - N/A   Scattered Clouds
5:15 AM 62.8 °F 61.0 °F 94% 29.82 in 10.0 mi South 5.8 mph - N/A   Scattered Clouds
5:35 AM 63.1 °F 61.2 °F 93% 29.82 in 10.0 mi South 4.6 mph - N/A   Clear
5:55 AM 63.1 °F 61.3 °F 94% 29.82 in 7.0 mi South 4.6 mph - N/A   Clear
6:15 AM 63.5 °F 61.7 °F 94% 29.83 in 7.0 mi South 6.9 mph - N/A   Scattered Clouds
6:35 AM 64.0 °F 61.9 °F 93% 29.82 in 10.0 mi South 5.8 mph - N/A   Clear
6:55 AM 64.4 °F 62.4 °F 93% 29.82 in 10.0 mi South 6.9 mph - N/A   Scattered Clouds
7:15 AM 65.3 °F 62.6 °F 91% 29.80 in 10.0 mi South 6.9 mph - N/A   Clear
7:35 AM 65.8 °F 63.0 °F 90% 29.79 in 10.0 mi South 8.1 mph - N/A   Clear
7:55 AM 66.6 °F 63.5 °F 90% 29.77 in 10.0 mi South 9.2 mph - N/A   Clear
8:15 AM 67.1 °F 63.9 °F 89% 29.78 in 10.0 mi South 9.2 mph 16.1 mph N/A Rain Light Rain
8:35 AM 67.1 °F 63.9 °F 89% 29.79 in 10.0 mi SSW 10.4 mph - N/A   Scattered Clouds
8:55 AM 68.4 °F 64.4 °F 87% 29.79 in 10.0 mi South 10.4 mph 16.1 mph N/A   Scattered Clouds
9:15 AM 68.2 °F 64.0 °F 87% 29.81 in 10.0 mi South 6.9 mph - N/A   Scattered Clouds
9:35 AM 68.9 °F 64.0 °F 84% 29.80 in 10.0 mi SSW 5.8 mph - N/A   Mostly Cloudy
9:55 AM 69.8 °F 64.4 °F 83% 29.80 in 10.0 mi SSW 5.8 mph - N/A   Scattered Clouds
10:15 AM 70.7 °F 64.2 °F 80% 29.78 in 10.0 mi SW 12.7 mph 19.6 mph N/A   Clear
10:35 AM 70.2 °F 64.9 °F 83% 29.77 in 10.0 mi SW 11.5 mph 17.3 mph N/A Rain Light Rain
10:55 AM 71.6 °F 65.8 °F 82% 29.79 in 10.0 mi WSW 9.2 mph - N/A   Clear
11:15 AM 71.4 °F 65.5 °F 81% 29.81 in 10.0 mi SW 12.7 mph 18.4 mph N/A Rain Light Rain
11:35 AM 72.3 °F 65.5 °F 79% 29.81 in 10.0 mi WSW 8.1 mph - N/A   Mostly Cloudy
11:55 AM 72.1 °F 65.5 °F 79% 29.81 in 10.0 mi SW 9.2 mph - N/A   Scattered Clouds
12:15 PM 72.0 °F 65.8 °F 81% 29.81 in 10.0 mi SW 3.5 mph - N/A   Mostly Cloudy
12:35 PM 72.5 °F 66.2 °F 81% 29.80 in 10.0 mi SW 4.6 mph - N/A   Mostly Cloudy
12:55 PM 72.9 °F 66.7 °F 81% 29.80 in 10.0 mi SW 4.6 mph - N/A   Mostly Cloudy
1:15 PM 73.9 °F 66.6 °F 78% 29.79 in 10.0 mi SW 6.9 mph - N/A   Mostly Cloudy
1:35 PM 75.2 °F 66.9 °F 75% 29.79 in 10.0 mi SSW 6.9 mph 18.4 mph N/A   Scattered Clouds
1:55 PM 74.7 °F 66.6 °F 76% 29.79 in 10.0 mi SSW 8.1 mph 18.4 mph N/A   Scattered Clouds
2:15 PM 74.8 °F 67.3 °F 77% 29.80 in 10.0 mi SW 6.9 mph - N/A   Scattered Clouds
2:35 PM 75.2 °F 67.6 °F 77% 29.79 in 10.0 mi SW 8.1 mph - N/A   Scattered Clouds
2:55 PM 75.2 °F 67.3 °F 76% 29.80 in 10.0 mi SSW 6.9 mph - N/A   Mostly Cloudy
3:15 PM 74.8 °F 66.9 °F 76% 29.80 in 10.0 mi SSW 10.4 mph 19.6 mph N/A   Mostly Cloudy
3:35 PM 75.4 °F 66.9 °F 75% 29.79 in 10.0 mi SSW 11.5 mph 16.1 mph N/A   Mostly Cloudy
3:55 PM 75.9 °F 67.1 °F 74% 29.80 in 10.0 mi SSW 11.5 mph 18.4 mph N/A   Scattered Clouds
4:15 PM 74.7 °F 66.6 °F 76% 29.80 in 10.0 mi SSW 9.2 mph 19.6 mph N/A   Mostly Cloudy
4:35 PM 74.7 °F 66.7 °F 76% 29.81 in 10.0 mi SSW 10.4 mph 16.1 mph N/A   Mostly Cloudy
4:55 PM 74.5 °F 66.7 °F 77% 29.81 in 10.0 mi SSW 8.1 mph 18.4 mph N/A   Scattered Clouds
5:15 PM 73.8 °F 66.9 °F 79% 29.81 in 10.0 mi SW 8.1 mph - N/A   Light Drizzle
5:35 PM 73.6 °F 67.1 °F 80% 29.81 in 10.0 mi SSW 8.1 mph - N/A   Overcast
5:55 PM 73.6 °F 67.3 °F 81% 29.80 in 10.0 mi SSW 6.9 mph 16.1 mph N/A   Mostly Cloudy
6:15 PM 73.4 °F 68.0 °F 83% 29.78 in 10.0 mi SSW 8.1 mph 16.1 mph N/A Rain Light Rain
6:35 PM 73.4 °F 68.0 °F 83% 29.79 in 10.0 mi SSW 6.9 mph - N/A   Scattered Clouds
6:55 PM 73.0 °F 68.0 °F 84% 29.78 in 10.0 mi South 8.1 mph - N/A Rain , Thunderstorm Rain
7:15 PM 70.2 °F 68.9 °F 96% 29.78 in 5.0 mi South 5.8 mph - 0.08 in Rain , Thunderstorm Thunderstorms and Rain
7:35 PM 70.0 °F 68.9 °F 96% 29.77 in 7.0 mi South 4.6 mph - 0.08 in Thunderstorm Thunderstorm
7:55 PM 70.2 °F 69.1 °F 96% 29.77 in 2.0 mi SSW 4.6 mph - 0.21 in Rain , Thunderstorm Heavy Thunderstorms and Rain
8:15 PM 70.2 °F 69.3 °F 97% 29.81 in 4.0 mi WNW 12.7 mph 19.6 mph 0.02 in Rain , Thunderstorm Light Thunderstorms and Rain
8:35 PM 65.8 °F 64.9 °F 97% 29.80 in 7.0 mi WSW 6.9 mph 28.8 mph 0.09 in Rain , Thunderstorm Thunderstorms and Rain
8:55 PM 66.0 °F 65.1 °F 97% 29.78 in 10.0 mi WSW 3.5 mph - 0.11 in Rain , Thunderstorm Light Thunderstorms and Rain
9:15 PM 65.7 °F 64.6 °F 96% 29.77 in 10.0 mi SE 10.4 mph - N/A Thunderstorm Scattered Clouds
9:35 PM 64.4 °F 63.5 °F 97% 29.82 in 10.0 mi SSW 15.0 mph 19.6 mph N/A   Clear
9:55 PM 64.4 °F 63.5 °F 97% 29.83 in 10.0 mi SSW 10.4 mph 17.3 mph N/A Thunderstorm Clear
10:15 PM 64.4 °F 63.3 °F 96% 29.84 in 10.0 mi SSW 3.5 mph - N/A   Clear
10:35 PM 64.8 °F 62.8 °F 93% 29.84 in 10.0 mi Calm Calm - 0.01 in Rain Light Rain
10:55 PM 65.3 °F 62.4 °F 90% 29.86 in 10.0 mi Calm Calm - 0.01 in   Mostly Cloudy
11:15 PM 64.0 °F 62.6 °F 95% 29.87 in 10.0 mi Calm Calm - N/A   Mostly Cloudy
11:35 PM 64.8 °F 63.0 °F 94% 29.86 in 7.0 mi Calm Calm - N/A Rain Light Rain
11:55 PM 64.9 °F 63.0 °F 93% 29.86 in 7.0 mi SSW 3.5 mph - 0.01 in Rain , Thunderstorm Light Thunderstorms and Rain